EHI
0 0 0 0 0 0 0 0 0 0 0 0 0 0 0 0 0 0 0 0 0 0 0 1 0 0 0 0 0 0 0 0 0 0 0 0 0 0 0 0 0 0 0
0 0 0 0 0 0 0 0 0 0 0 0 0 0 0 0 0 0 0 0 0 0 1 1 1 0 0 0 0 0 0 0 0 0 0 0 0 0 0 0 0 0 0
0 0 0 0 0 0 0 0 0 0 0 0 0 0 0 0 0 0 0 0 0 0 1 1 1 0 0 0 0 0 0 0 0 0 0 0 0 0 0 0 0 0 0
0 0 0 0 0 0 0 0 0 0 0 0 0 0 0 0 0 0 0 0 0 0 0 0 0 0 0 0 0 0 0 0 0 0 0 0 0 0 0 0 0 0 0
0 0 0 0 0 0 0 0 0 0 0 0 0 0 0 0 0 0 0 0 0 0 0 0 0 0 0 0 0 0 0 0 0 0 0 0 0 0 0 0 0 0 0
0 0 0 0 0 0 0 0 0 0 0 0 0 0 0 0 0 0 0 0 0 0 0 0 0 0 0 0 0 0 0 0 0 0 0 0 0 0 0 0 0 0 0
0 0 0 0 0 0 0 0 0 0 0 0 0 0 0 0 0 0 0 0 0 0 0 0 0 0 0 0 0 0 0 0 0 0 0 0 0 0 0 0 0 0 0
0 0 0 0 0 0 0 0 0 0 0 0 0 0 0 0 0 0 0 0 0 0 0 0 0 0 0 0 0 0 0 0 0 0 0 0 0 0 0 0 0 0 0
0 0 0 0 0 0 0 0 0 0 0 0 0 0 0 0 0 0 0 0 0 0 0 0 0 0 0 0 0 0 0 0 0 0 0 0 0 0 0 0 0 0 0
0 0 0 0 0 0 0 0 0 0 0 0 0 0 0 0 0 0 0 0 0 0 0 0 0 0 0 0 0 0 0 0 0 0 0 0 0 0 0 0 0 0 0
0 0 0 0 0 0 0 0 0 0 0 0 0 0 0 0 0 0 0 0 0 0 0 0 0 0 0 0 0 0 0 0 0 0 0 0 0 0 0 0 0 0 0
0 0 0 0 0 0 0 0 0 0 0 0 0 0 0 0 0 0 0 0 0 0 0 0 0 0 0 0 0 0 0 0 0 0 0 0 0 0 0 0 0 0 0
0 0 0 0 0 0 0 0 0 0 0 0 0 0 0 0 0 0 0 0 0 0 0 0 0 0 0 0 0 0 0 0 0 0 0 0 0 0 0 0 0 0 0
0 0 0 0 0 0 0 0 0 0 0 0 0 0 0 0 0 0 0 0 0 0 0 0 0 0 0 0 0 0 0 0 0 0 0 0 0 0 0 0 0 0 0
0 0 0 0 0 0 0 0 0 0 0 0 0 0 0 0 0 0 0 0 0 0 0 0 0 0 0 0 0 0 0 0 0 0 0 0 0 0 0 0 0 0 0
0 0 0 0 0 0 0 0 0 0 0 0 0 0 0 0 0 0 0 0 0 0 0 0 0 0 0 0 0 0 0 0 0 0 0 0 0 0 0 0 0 0 0
0 0 0 0 0 0 0 0 0 0 0 0 0 0 0 0 0 0 0 0 0 0 0 0 0 0 0 0 0 0 0 0 0 0 0 0 0 0 0 0 0 0 0
0 0 0 0 0 0 0 0 0 0 0 0 0 0 0 0 0 0 0 0 0 0 0 0 0 0 0 0 0 0 0 0 0 0 0 0 0 0 0 0 0 0 0
0 0 0 0 0 0 0 0 0 0 0 0 0 0 0 0 0 0 0 0 0 0 0 0 0 0 0 0 0 0 0 0 0 0 0 0 0 0 0 0 0 0 0
0 0 0 0 0 0 0 0 0 0 0 0 0 0 0 0 0 0 0 0 0 0 0 0 0 0 0 0 0 0 0 0 0 0 0 0 0 0 0 0 0 0 0
0 0 0 0 0 0 0 0 0 0 0 0 0 0 0 0 0 0 0 0 0 0 0 0 0 0 0 0 0 0 0 0 0 0 0 0 0 0 0 0 0 0 0
0 0 0 0 0 0 0 0 0 0 0 0 0 0 0 0 0 0 0 0 0 0 0 0 0 0 0 0 0 0 0 0 0 0 0 0 0 0 0 0 0 0 0
0 0 0 0 0 0 0 0 0 0 0 0 0 0 0 0 0 0 0 0 0 0 0 0 0 0 0 0 0 0 0 0 0 0 0 0 0 0 0 0 0 0 0
0 0 0 0 0 0 0 0 0 0 0 0 0 0 0 0 0 0 0 0 0 0 0 0 0 0 0 0 0 0 0 0 0 0 0 0 0 0 0 0 0 0 0
0 0 0 0 0 0 0 0 0 0 0 0 0 0 0 0 0 0 0 0 0 0 0 0 0 0 0 0 0 0 0 0 0 0 0 0 0 0 0 0 0 0 0
0 0 0 0 0 0 0 0 0 0 0 0 0 0 0 0 0 0 0 0 0 0 0 0 0 0 0 0 0 0 0 0 0 0 0 0 0 0 0 0 0 0 0
Wind_Speed
2 1 1 2 2 2 2 2 2 3 3 3 2 2 2 2 1 1 1 3 3 1 1 3 4 3 3 3 3 3 3 3 3 3 3 4 4 5 6 7 7 7 7
1 1 1 1 1 1 1 1 1 2 2 2 2 2 2 1 1 1 1 1 3 2 1 1 2 3 3 3 3 3 3 3 3 4 3 3 3 4 5 6 6 6 6
1 1 1 1 1 1 2 1 2 2 2 2 2 2 1 1 1 1 1 1 1 2 2 1 2 2 2 3 3 3 3 4 3 3 4 3 3 4 5 6 5 6 6
1 1 1 0 1 1 1 1 1 2 2 2 2 2 2 1 1 1 1 1 1 1 2 2 1 2 2 3 2 3 3 4 4 4 4 3 3 3 4 6 5 6 6
1 1 1 0 1 1 1 1 1 1 1 1 2 2 1 1 1 1 0 1 1 1 1 2 2 1 1 2 2 2 2 3 4 4 4 4 3 4 4 6 6 6 6
1 1 0 0 1 1 1 1 1 1 0 0 1 2 2 2 1 1 1 1 1 1 1 1 1 2 2 1 2 2 2 2 3 4 4 4 4 4 5 5 7 7 6
1 1 0 0 1 1 0 1 1 1 1 1 1 2 2 2 1 1 1 1 1 1 1 1 1 1 1 2 2 2 3 3 3 4 4 4 4 3 5 5 6 7 7
1 1 0 1 1 1 1 1 1 0 1 1 1 1 1 2 2 2 1 1 1 1 2 2 2 1 1 1 2 2 3 3 4 5 4 4 3 3 4 5 6 7 7
2 1 0 1 0 1 2 1 1 1 1 1 0 1 1 2 2 2 1 1 1 1 1 2 2 2 2 1 2 2 2 2 4 4 5 5 4 4 3 4 5 6 7
3 2 2 0 0 1 1 2 1 1 1 1 1 1 1 1 1 2 2 1 2 1 2 2 2 2 2 1 1 2 1 2 3 3 4 5 5 5 4 4 3 4 5
2 3 2 1 1 1 1 2 2 1 1 2 1 1 1 1 0 1 2 2 2 2 2 2 2 1 2 1 1 2 2 2 2 3 4 4 4 4 4 4 4 4 5
2 2 3 2 2 1 2 2 2 2 2 2 2 1 1 1 1 1 2 2 3 2 2 2 2 2 1 1 2 3 3 3 3 3 4 4 4 4 5 4 4 5 5
2 3 3 3 2 2 2 2 2 2 3 3 3 2 2 2 1 1 2 2 2 2 2 2 2 2 2 1 2 4 4 4 4 5 5 4 4 4 4 5 4 4 5
3 3 3 3 3 3 3 2 3 3 3 3 4 3 3 3 2 2 2 2 2 3 3 3 2 2 2 2 3 4 3 5 5 5 5 5 4 4 4 4 4 4 5
3 4 3 3 4 3 3 3 3 4 3 3 4 4 4 3 3 2 2 3 3 4 4 3 2 2 2 2 4 2 2 5 6 5 5 5 5 4 4 4 4 4 5
4 4 4 4 4 4 4 3 3 4 4 4 3 4 4 3 3 3 3 3 3 4 5 2 2 2 2 3 4 2 3 6 6 6 6 5 5 5 5 5 5 5 5
5 5 5 5 5 4 4 4 4 4 5 5 5 5 6 5 4 3 3 3 3 3 5 4 2 2 2 3 3 2 3 3 4 7 7 7 6 7 6 6 5 5 5
5 5 5 5 5 5 4 5 5 5 5 6 6 6 6 4 5 4 4 4 4 4 5 5 3 3 3 3 3 3 3 3 3 6 7 7 7 7 7 6 6 5 5
5 5 5 5 5 5 5 5 5 5 6 7 7 7 6 6 6 5 5 5 4 4 4 4 4 3 2 2 2 2 3 2 3 4 6 7 8 8 7 7 6 5 5
5 6 6 6 6 6 6 6 6 6 6 6 6 7 7 7 7 6 6 6 5 4 4 4 4 3 2 2 2 2 3 2 3 3 4 5 6 7 8 7 6 5 6
6 6 6 6 6 6 5 6 6 6 6 6 6 6 7 8 9 8 6 5 5 4 4 4 4 3 3 2 3 2 3 3 3 2 2 2 2 2 3 5 5 6 7
6 6 6 6 6 6 9 11 8 5 5 6 6 5 6 8 9 11 12 10 8 6 6 5 5 5 5 4 3 3 3 2 3 2 2 3 2 3 3 3 5 7 7
6 6 6 6 6 8 12 12 11 7 5 5 5 5 5 6 8 6 8 11 10 12 11 7 7 7 6 5 5 5 5 5 5 3 2 3 2 3 3 4 7 7 7
5 6 6 6 6 8 12 13 12 7 5 5 5 5 6 6 6 6 6 6 7 8 9 8 7 7 6 6 6 6 5 4 3 2 2 3 2 2 2 2 6 7 7
5 5 6 6 6 8 12 13 12 5 5 5 6 6 6 7 10 10 7 6 7 7 9 11 11 10 10 10 7 4 3 3 4 3 3 3 2 1 2 3 4 7 7
5 6 6 6 6 6 11 13 12 4 5 5 5 5 8 9 10 11 7 6 7 6 5 6 7 8 7 8 10 7 5 5 3 3 3 3 2 1 2 2 2 2 3
Wind_Direction
83 59 41 42 35 41 43 30 31 28 25 22 28 33 30 31 14 360 344 6 16 29 147 161 154 149 149 154 158 158 148 150 152 143 131 124 136 131 138 139 137 137 133
99 90 61 39 22 28 34 42 30 29 15 16 24 20 12 15 13 357 343 339 357 0 1 169 166 168 169 169 173 180 180 170 166 165 156 147 148 148 148 146 146 147 144
97 105 94 52 8 16 30 39 34 33 29 20 14 1 353 18 24 355 350 341 326 332 336 250 187 184 192 186 187 189 192 192 179 172 177 168 170 166 166 159 155 156 153
69 95 89 40 9 46 42 38 47 36 31 18 357 339 335 349 12 352 347 351 333 318 318 337 229 192 196 192 191 193 196 191 192 191 183 179 184 180 174 171 167 164 162
68 84 108 74 34 62 50 28 37 38 34 10 341 334 340 336 326 318 330 333 332 332 316 318 333 319 222 208 202 199 197 199 196 196 194 196 199 199 188 183 174 169 164
70 78 80 86 87 78 42 43 55 22 39 355 344 347 335 325 340 341 298 322 343 337 333 334 326 301 298 257 213 208 208 202 204 201 199 208 214 214 197 193 184 175 169
37 85 58 63 91 113 91 51 63 47 14 12 34 354 339 337 353 346 328 352 358 343 351 347 340 318 291 285 270 227 223 220 218 207 195 200 215 223 204 197 190 182 177
11 12 140 158 174 146 121 98 68 61 344 359 84 45 338 329 332 346 350 10 358 356 357 349 343 322 306 288 291 257 238 228 225 212 200 196 207 216 214 204 201 189 184
352 336 305 166 190 173 184 192 170 154 212 272 282 158 175 232 296 307 320 346 358 3 337 330 344 335 321 300 289 277 250 233 229 219 210 204 208 213 219 199 205 197 192
343 337 341 343 230 214 199 209 189 204 191 225 279 299 251 183 205 286 301 325 332 322 316 317 318 313 314 295 307 312 288 268 245 234 225 220 216 219 233 216 211 210 196
339 339 337 338 301 258 237 217 210 207 213 221 223 256 311 330 239 217 261 290 304 294 301 295 291 293 305 306 292 307 303 288 269 253 241 237 232 236 237 237 221 217 205
318 327 329 323 302 276 252 232 218 215 220 229 228 218 216 217 219 228 237 251 268 277 289 287 285 287 296 304 306 303 291 280 266 263 257 249 248 256 252 255 234 224 208
299 299 307 298 294 286 274 252 233 232 226 226 226 233 237 242 219 226 231 252 271 284 279 269 259 275 286 291 302 309 292 282 271 260 259 261 260 264 271 253 253 234 208
281 288 283 283 282 281 283 264 244 238 235 230 236 234 238 241 230 217 215 215 260 275 265 257 267 255 270 280 286 298 287 284 275 271 268 272 264 259 275 271 259 255 221
301 295 281 282 280 275 271 267 250 237 234 233 238 235 236 237 238 230 221 208 212 239 252 241 245 255 273 275 284 281 277 279 279 275 272 273 265 256 262 269 261 261 238
308 306 301 283 280 276 270 263 266 248 238 240 238 236 240 237 237 233 230 230 225 225 248 239 239 271 277 284 285 288 268 270 268 268 268 268 260 250 254 251 256 257 245
313 303 298 295 285 277 273 265 266 262 246 244 242 238 240 235 232 231 228 228 230 226 246 263 255 267 250 259 282 278 273 262 256 257 258 258 256 246 246 249 252 254 245
312 306 299 293 291 286 276 266 262 264 254 248 244 241 244 240 234 231 229 232 233 230 233 253 258 249 248 254 259 262 272 269 260 258 255 254 254 248 245 247 252 241 243
317 314 310 299 292 290 283 271 263 261 260 254 246 242 241 235 235 234 234 233 234 238 231 240 254 246 251 256 268 279 276 270 273 266 258 251 249 248 247 246 237 237 242
318 315 309 303 296 288 283 276 271 262 261 262 254 243 237 233 235 233 234 233 231 228 226 233 248 250 249 252 244 257 275 262 267 275 262 261 259 254 249 241 235 236 239
322 318 314 311 306 295 284 277 269 267 262 262 259 250 244 241 242 240 238 230 224 224 224 229 241 247 240 232 235 240 256 275 275 252 253 263 264 254 241 239 242 235 236
320 319 316 312 310 307 308 302 292 271 266 264 263 260 256 252 250 251 252 246 235 226 226 229 236 237 240 234 234 234 242 254 265 239 239 263 240 245 238 228 235 238 240
319 317 315 314 309 307 311 310 305 295 275 265 261 262 266 262 258 245 252 255 251 248 241 234 234 234 234 227 224 232 232 236 247 238 244 262 236 244 245 240 235 238 243
313 311 311 310 308 311 318 317 312 301 286 271 261 254 254 259 255 253 243 246 248 251 250 241 235 237 236 227 223 231 236 251 273 251 218 246 229 235 251 243 235 238 243
311 309 309 311 312 313 317 318 318 300 289 280 270 263 256 251 257 257 249 247 252 256 260 254 249 247 246 244 235 223 221 232 254 245 206 212 226 251 260 251 241 237 240
306 310 314 314 308 306 314 319 319 301 293 289 280 272 266 262 260 258 247 246 251 254 255 258 256 253 246 240 237 224 215 224 229 234 202 190 199 175 261 260 235 233 239